This is the latest recevied weather packets stored in our database for station/object EA7HQL-10. If no packets are shown the sender has not sent any weather packets the latest 1 day(s).
| Time | Temp. | Humidity | Pressure | Rain* | Wind** | Luminosity | Snow |
|---|---|---|---|---|---|---|---|
| 1778033105 | 18.33° C | 52% | 1008.7 hPa | 0 mm | 2.68 m/s, 213° | - | - |
| 1778032862 | 18.33° C | 52% | 1008.6 hPa | 0 mm | 4.92 m/s, 248° | - | - |
| 1778032580 | 18.33° C | 52% | 1008.6 hPa | 0 mm | 3.13 m/s, 239° | - | - |
| 1778032335 | 18.33° C | 52% | 1008.6 hPa | 0 mm | 3.13 m/s, 214° | - | - |
| 1778032090 | 18.89° C | 52% | 1008.7 hPa | 0 mm | 2.24 m/s, 285° | - | - |
| 1778031795 | 18.33° C | 52% | 1008.7 hPa | 0 mm | 3.13 m/s, 358° | - | - |
| 1778031525 | 18.89° C | 52% | 1008.7 hPa | 0 mm | 4.47 m/s, 259° | - | - |
| 1778031245 | 18.89° C | 52% | 1008.9 hPa | 0 mm | 1.79 m/s, 1° | - | - |
| 1778030960 | 18.89° C | 51% | 1008.8 hPa | 0 mm | 3.58 m/s, 298° | - | - |
| 1778030680 | 18.89° C | 51% | 1008.8 hPa | 0 mm | 2.24 m/s, 3° | - | - |
| 1778030400 | 18.89° C | 51% | 1008.9 hPa | 0 mm | 5.36 m/s, 267° | - | - |
| 1778030130 | 18.89° C | 50% | 1009 hPa | 0 mm | 4.47 m/s, 228° | - | - |
| 1778029852 | 18.89° C | 50% | 1009 hPa | 0 mm | 2.68 m/s, 291° | - | - |
| 1778029567 | 18.89° C | 50% | 1009.1 hPa | 0 mm | 4.47 m/s, 266° | - | - |
| 1778029300 | 18.89° C | 50% | 1009.1 hPa | 0 mm | 3.13 m/s, 281° | - | - |
| 1778029129 | 18.89° C | 49% | 1009 hPa | 0 mm | 4.47 m/s, 236° | - | - |
| 1778028839 | 18.89° C | 49% | 1009.1 hPa | 0 mm | 3.13 m/s, 266° | - | - |
| 1778028549 | 18.89° C | 49% | 1009.4 hPa | 0 mm | 4.92 m/s, 238° | - | - |
| 1778028254 | 18.89° C | 49% | 1009.3 hPa | 0 mm | 4.92 m/s, 4° | - | - |
| 1778027974 | 18.89° C | 49% | 1009.4 hPa | 0 mm | 4.47 m/s, 209° | - | - |
| 1778027694 | 18.89° C | 48% | 1009.2 hPa | 0 mm | 1.79 m/s, 291° | - | - |
| 1778027434 | 18.89° C | 48% | 1009.5 hPa | 0 mm | 2.24 m/s, 302° | - | - |
| 1778027149 | 18.89° C | 49% | 1009.3 hPa | 0 mm | 1.34 m/s, 320° | - | - |
| 1778026884 | 19.44° C | 48% | 1009.5 hPa | 0 mm | 1.34 m/s, 219° | - | - |
| 1778026619 | 18.89° C | 48% | 1009.5 hPa | 0 mm | 1.79 m/s, 41° | - | - |
* Rain latest hour (hover to see other rain measurements)
** Current wind speed in m/s (hover to see current wind gust speed)